Weather in Vlasikha

Russia / Altai Krai     53°17′51″N   83°35′04″E
temp.,
°C
wind,
m/s
gust,
m/s
humid.,
%
clouds,
%
prec.,
mm/h
press.,
hPa
HPBL,
m
24 september, fri
fri2401:00+3nnw4597100 0.3 1022320
04:00+3n3496100 0.1 1022399
07:00+3n3595100 0.3 1024397
10:00+4nnw3492100 0.6 1025620
13:00+5nw457197 0.9 1026940
16:00+5w575897 0.1 10271321
19:00+4w355898 0.1 1028124
22:00+3sw3870100 0.0 1029238
25 september, sat
sat2501:00+4sw51060100 0.0 1028405
04:00+3sw61259100 0.0 1027424
07:00+2sw61363100 0.0 1027467
10:00+3wsw61291100 0.5 1026679
13:00+4sw71193100 0.9 1025754
16:00+6wsw51182100 0.9 10231022
19:00+7w61170100 1.2 1021665
22:00+4w5994100 1.8 1020767
26 september, sun
sun2601:00+4w4797100 5.9 1018735
04:00+2nw4798100 3.0 1017487
07:00+1nw589492 3.2 1018585
10:00+1nw6780100 0.1 1020839
13:00+3wnw6765100 0.1 10211383
16:00+3wnw666392 0.1 10221239
19:00+2nw467578 0.3 1024670
22:00−1wnw358688 0.0 1024100
27 september, mon
mon2701:00+1w3572100 0.0 1024274
04:00−1w348669 0.0 102475
07:00−1w359582 0.1 1024209
10:00+1wsw2294100 0.2 1025227
13:00+4ene117199 0.4 1025876
16:00+4ene336297 0.0 10251080
19:00+2ne4775100 0.0 1025180
22:000ene498587 0.0 1025272
28 september, tue
tue2801:00−1ene51187100 0.0 1024311
04:00−1ene41087100 0.0 1023296
07:00−2ne4990100 0.0 1023222
10:00+2ene586496 0.0 1022391
13:00+7ene5743100 0.0 1020818
16:00+8e673995 0.0 10191071
19:00+5ene6107212 0.0 1017331
22:00+2ene5118568 0.0 1015245